Time,TemperatureF,DewpointF,PressureIn,WindDirection,WindDirectionDegrees,WindSpeedMPH,WindSpeedGustMPH,Humidity,HourlyPrecipIn,Conditions,Clouds,dailyrainin,SolarRadiationWatts/m^2,SoftwareType,DateUTC
2013-02-03 00:00:00,12.6,9.5,30.02,SSE,150,0.0,0.0,87,0.00,,---,0.00,0.00,VWS V14.00,2013-02-03 05:00:00,
2013-02-03 00:01:00,12.5,9.4,30.02,SSE,150,0.0,0.0,87,0.00,,---,0.00,0.00,VWS V14.00,2013-02-03 05:01:00,
2013-02-03 00:02:00,12.5,9.4,30.02,SSE,150,0.0,0.0,87,0.00,,---,0.00,0.00,VWS V14.00,2013-02-03 05:02:00,
2013-02-03 00:07:00,12.2,8.8,30.02,SSE,150,0.0,0.0,86,0.00,,---,0.00,0.00,VWS V14.00,2013-02-03 05:07:00,
2013-02-03 00:12:00,11.9,8.5,30.02,SSE,150,0.0,0.0,86,0.00,,---,0.00,0.00,VWS V14.00,2013-02-03 05:12:00,
2013-02-03 00:17:00,11.7,8.3,30.02,SSE,150,0.0,0.0,86,0.00,,---,0.00,0.00,VWS V14.00,2013-02-03 05:17:00,
2013-02-03 00:22:00,11.4,8.0,30.02,SSE,150,0.0,0.0,86,0.00,,---,0.00,0.00,VWS V14.00,2013-02-03 05:22:00,
2013-02-03 00:27:00,11.2,7.8,30.02,SSE,150,0.0,0.0,86,0.00,,---,0.00,0.00,VWS V14.00,2013-02-03 05:27:00,
2013-02-03 00:30:00,8.3,4.2,30.12,NW,304,4.0,7.0,83,0.00,,---,0.00,0.00,VWS V14.00,2013-02-03 05:30:00,
2013-02-03 00:32:00,10.9,7.5,30.01,SSE,150,0.0,0.0,86,0.00,,---,0.00,0.00,VWS V14.00,2013-02-03 05:32:00,
2013-02-03 00:37:00,10.8,7.4,30.01,ESE,109,0.0,1.0,86,0.00,,---,0.00,0.00,VWS V14.00,2013-02-03 05:37:00,
2013-02-03 00:42:00,10.7,7.3,30.01,ESE,109,0.0,1.0,86,0.00,,---,0.00,0.00,VWS V14.00,2013-02-03 05:42:00,
2013-02-03 00:47:00,10.3,6.9,30.01,ESE,109,0.0,0.0,86,0.00,,---,0.00,0.00,VWS V14.00,2013-02-03 05:47:00,
2013-02-03 00:52:00,9.8,6.5,30.01,ESE,109,0.0,0.0,86,0.00,,---,0.00,0.00,VWS V14.00,2013-02-03 05:52:00,
2013-02-03 00:57:00,9.1,5.5,30.01,ESE,109,0.0,0.0,85,0.00,,---,0.00,0.00,VWS V14.00,2013-02-03 05:57:00,
2013-02-03 01:00:00,8.2,4.1,30.12,NW,311,1.0,5.0,83,0.00,,---,0.00,0.00,VWS V14.00,2013-02-03 06:00:00,
2013-02-03 01:02:00,8.7,5.4,30.01,ESE,109,0.0,0.0,86,0.00,,---,0.00,0.00,VWS V14.00,2013-02-03 06:02:00,
2013-02-03 01:07:00,8.6,5.3,30.00,ESE,109,0.0,0.0,86,0.00,,---,0.00,0.00,VWS V14.00,2013-02-03 06:07:00,
2013-02-03 01:12:00,8.3,5.0,30.00,ESE,109,0.0,0.0,86,0.00,,---,0.00,0.00,VWS V14.00,2013-02-03 06:12:00,
2013-02-03 01:17:00,8.2,4.9,30.00,ESE,109,0.0,0.0,86,0.00,,---,0.00,0.00,VWS V14.00,2013-02-03 06:17:00,
2013-02-03 01:22:00,8.0,4.4,30.00,ESE,109,0.0,0.0,85,0.00,,---,0.00,0.00,VWS V14.00,2013-02-03 06:22:00,
2013-02-03 01:27:00,7.8,4.2,30.00,ESE,109,0.0,0.0,85,0.00,,---,0.00,0.00,VWS V14.00,2013-02-03 06:27:00,
2013-02-03 01:30:00,8.2,3.8,30.13,NW,306,1.0,5.0,82,0.00,,---,0.00,0.00,VWS V14.00,2013-02-03 06:30:00,
2013-02-03 01:32:00,7.8,4.5,30.00,ESE,108,0.0,2.0,86,0.00,,---,0.00,0.00,VWS V14.00,2013-02-03 06:32:00,
2013-02-03 01:37:00,7.8,4.5,30.00,ESE,108,0.0,2.0,86,0.00,,---,0.00,0.00,VWS V14.00,2013-02-03 06:37:00,
2013-02-03 01:42:00,7.6,4.3,30.00,ESE,108,0.0,2.0,86,0.00,,---,0.00,0.00,VWS V14.00,2013-02-03 06:42:00,
2013-02-03 01:47:00,7.1,3.5,30.00,ESE,108,0.0,0.0,85,0.00,,---,0.00,0.00,VWS V14.00,2013-02-03 06:47:00,
2013-02-03 01:52:00,6.8,3.5,30.00,ESE,108,0.0,0.0,86,0.00,,---,0.00,0.00,VWS V14.00,2013-02-03 06:52:00,
2013-02-03 01:57:00,6.9,3.6,30.00,ESE,108,0.0,0.0,86,0.00,,---,0.00,0.00,VWS V14.00,2013-02-03 06:57:00,
2013-02-03 02:00:00,8.1,3.8,30.14,NW,309,0.0,3.0,82,0.00,,---,0.00,0.00,VWS V14.00,2013-02-03 07:00:00,
2013-02-03 02:02:00,6.5,3.0,30.00,ESE,108,0.0,0.0,85,0.00,,---,0.00,0.00,VWS V14.00,2013-02-03 07:02:00,
2013-02-03 02:07:00,6.0,2.5,30.00,ESE,108,0.0,0.0,85,0.00,,---,0.00,0.00,VWS V14.00,2013-02-03 07:07:00,
2013-02-03 02:12:00,5.9,2.4,30.00,ESE,108,0.0,0.0,85,0.00,,---,0.00,0.00,VWS V14.00,2013-02-03 07:12:00,
2013-02-03 02:17:00,5.7,2.2,30.00,ESE,108,0.0,0.0,85,0.00,,---,0.00,0.00,VWS V14.00,2013-02-03 07:17:00,
2013-02-03 02:22:00,5.4,1.9,30.01,ESE,108,0.0,0.0,85,0.00,,---,0.00,0.00,VWS V14.00,2013-02-03 07:22:00,
2013-02-03 02:27:00,5.2,1.7,30.00,ESE,108,0.0,0.0,85,0.00,,---,0.00,0.00,VWS V14.00,2013-02-03 07:27:00,
2013-02-03 02:30:00,8.3,4.0,30.14,NW,309,0.0,1.0,82,0.00,,---,0.00,0.00,VWS V14.00,2013-02-03 07:30:00,
2013-02-03 02:32:00,4.8,1.3,30.00,ESE,108,0.0,0.0,85,0.00,,---,0.00,0.00,VWS V14.00,2013-02-03 07:32:00,
2013-02-03 02:37:00,4.5,1.0,30.00,ESE,108,0.0,0.0,85,0.00,,---,0.00,0.00,VWS V14.00,2013-02-03 07:37:00,
2013-02-03 02:42:00,4.3,0.8,30.00,ESE,108,0.0,0.0,85,0.00,,---,0.00,0.00,VWS V14.00,2013-02-03 07:42:00,
2013-02-03 02:47:00,4.2,0.7,30.00,ESE,108,0.0,0.0,85,0.00,,---,0.00,0.00,VWS V14.00,2013-02-03 07:47:00,
2013-02-03 02:52:00,4.1,0.6,30.00,ESE,108,0.0,0.0,85,0.00,,---,0.00,0.00,VWS V14.00,2013-02-03 07:52:00,
2013-02-03 02:57:00,3.9,0.4,30.00,ESE,108,0.0,0.0,85,0.00,,---,0.00,0.00,VWS V14.00,2013-02-03 07:57:00,
2013-02-03 03:00:00,8.1,3.8,30.14,NW,309,0.0,0.0,82,0.00,,---,0.00,0.00,VWS V14.00,2013-02-03 08:00:00,
2013-02-03 03:02:00,4.1,0.6,30.00,ESE,108,1.0,2.0,85,0.00,,---,0.00,0.00,VWS V14.00,2013-02-03 08:02:00,
2013-02-03 03:07:00,4.4,1.1,30.00,ESE,108,0.0,2.0,86,0.00,,---,0.00,0.00,VWS V14.00,2013-02-03 08:07:00,
2013-02-03 03:12:00,4.2,0.7,30.00,ESE,108,0.0,2.0,85,0.00,,---,0.00,0.00,VWS V14.00,2013-02-03 08:12:00,
2013-02-03 03:17:00,4.0,0.5,30.00,ESE,108,0.0,0.0,85,0.00,,---,0.00,0.00,VWS V14.00,2013-02-03 08:17:00,
2013-02-03 03:22:00,3.7,0.2,30.00,ESE,108,0.0,0.0,85,0.00,,---,0.00,0.00,VWS V14.00,2013-02-03 08:22:00,
2013-02-03 03:27:00,3.4,-0.1,30.00,ESE,108,0.0,0.0,85,0.00,,---,0.00,0.00,VWS V14.00,2013-02-03 08:27:00,
2013-02-03 03:30:00,7.5,2.9,30.13,NW,309,0.0,0.0,81,0.00,,---,0.00,0.00,VWS V14.00,2013-02-03 08:30:00,
2013-02-03 03:32:00,3.2,-0.3,29.99,ESE,108,0.0,0.0,85,0.00,,---,0.00,0.00,VWS V14.00,2013-02-03 08:32:00,
2013-02-03 03:37:00,3.3,-0.2,30.00,ESE,108,0.0,0.0,85,0.00,,---,0.00,0.00,VWS V14.00,2013-02-03 08:37:00,
2013-02-03 03:42:00,3.3,-0.2,29.99,ESE,108,0.0,0.0,85,0.00,,---,0.00,0.00,VWS V14.00,2013-02-03 08:42:00,
2013-02-03 03:47:00,3.2,-0.3,29.99,ESE,108,0.0,0.0,85,0.00,,---,0.00,0.00,VWS V14.00,2013-02-03 08:47:00,
2013-02-03 03:52:00,3.2,-0.3,29.99,ESE,108,0.0,0.0,85,0.00,,---,0.00,0.00,VWS V14.00,2013-02-03 08:52:00,
2013-02-03 03:57:00,3.0,-0.5,29.99,ESE,108,0.0,0.0,85,0.00,,---,0.00,0.00,VWS V14.00,2013-02-03 08:57:00,
2013-02-03 04:00:00,6.5,2.2,30.13,NW,309,0.0,0.0,82,0.00,,---,0.00,0.00,VWS V14.00,2013-02-03 09:00:00,
2013-02-03 04:02:00,3.1,-0.4,29.99,ESE,108,0.0,0.0,85,0.00,,---,0.00,0.00,VWS V14.00,2013-02-03 09:02:00,
2013-02-03 04:07:00,2.8,-0.7,29.99,ESE,108,0.0,0.0,85,0.00,,---,0.00,0.00,VWS V14.00,2013-02-03 09:07:00,
2013-02-03 04:12:00,2.5,-1.0,29.99,ESE,108,0.0,0.0,85,0.00,,---,0.00,0.00,VWS V14.00,2013-02-03 09:12:00,
2013-02-03 04:17:00,2.0,-1.7,29.99,ESE,108,0.0,0.0,84,0.00,,---,0.00,0.00,VWS V14.00,2013-02-03 09:17:00,
2013-02-03 04:22:00,2.0,-1.5,29.99,ESE,108,0.0,0.0,85,0.00,,---,0.00,0.00,VWS V14.00,2013-02-03 09:22:00,
2013-02-03 04:27:00,2.3,-1.2,29.99,ESE,108,0.0,0.0,85,0.00,,---,0.00,0.00,VWS V14.00,2013-02-03 09:27:00,
2013-02-03 04:30:00,5.4,1.4,30.14,NW,309,0.0,2.0,83,0.00,,---,0.00,0.00,VWS V14.00,2013-02-03 09:30:00,
2013-02-03 04:32:00,2.4,-1.1,29.98,ESE,108,0.0,0.0,85,0.00,,---,0.00,0.00,VWS V14.00,2013-02-03 09:32:00,
2013-02-03 04:37:00,2.4,-1.1,29.99,ESE,108,0.0,0.0,85,0.00,,---,0.00,0.00,VWS V14.00,2013-02-03 09:37:00,
2013-02-03 04:42:00,2.5,-1.0,29.98,ESE,108,0.0,0.0,85,0.00,,---,0.00,0.00,VWS V14.00,2013-02-03 09:42:00,
2013-02-03 04:47:00,2.4,-1.1,29.98,ESE,108,0.0,0.0,85,0.00,,---,0.00,0.00,VWS V14.00,2013-02-03 09:47:00,
2013-02-03 04:52:00,2.3,-1.2,29.98,ESE,108,0.0,0.0,85,0.00,,---,0.00,0.00,VWS V14.00,2013-02-03 09:52:00,
2013-02-03 04:57:00,2.3,-1.2,29.98,ESE,108,0.0,0.0,85,0.00,,---,0.00,0.00,VWS V14.00,2013-02-03 09:57:00,
2013-02-03 05:00:00,5.0,1.0,30.14,NE,38,0.0,4.0,83,0.00,,---,0.00,5.00,VWS V14.00,2013-02-03 10:00:00,
2013-02-03 05:02:00,2.2,-1.3,29.98,ESE,108,0.0,0.0,85,0.00,,---,0.00,0.00,VWS V14.00,2013-02-03 10:02:00,
2013-02-03 05:07:00,2.0,-1.5,29.98,ESE,108,0.0,0.0,85,0.00,,---,0.00,0.00,VWS V14.00,2013-02-03 10:07:00,
2013-02-03 05:12:00,1.9,-1.6,29.98,ESE,108,0.0,0.0,85,0.00,,---,0.00,0.00,VWS V14.00,2013-02-03 10:12:00,
2013-02-03 05:17:00,1.8,-1.7,29.98,ESE,108,0.0,0.0,85,0.00,,---,0.00,0.00,VWS V14.00,2013-02-03 10:17:00,
2013-02-03 05:22:00,1.7,-2.0,29.98,ESE,108,0.0,0.0,84,0.00,,---,0.00,0.00,VWS V14.00,2013-02-03 10:22:00,
2013-02-03 05:27:00,1.8,-1.7,29.98,ESE,108,0.0,0.0,85,0.00,,---,0.00,0.00,VWS V14.00,2013-02-03 10:27:00,
2013-02-03 05:30:00,5.1,1.3,30.15,East,84,0.0,6.0,84,0.00,,---,0.00,69.00,VWS V14.00,2013-02-03 10:30:00,
2013-02-03 05:33:00,1.8,-1.7,29.98,ESE,108,0.0,0.0,85,0.00,,---,0.00,0.00,VWS V14.00,2013-02-03 10:33:00,
2013-02-03 05:38:00,1.8,-1.7,29.97,ESE,108,0.0,0.0,85,0.00,,---,0.00,0.00,VWS V14.00,2013-02-03 10:38:00,
2013-02-03 05:43:00,1.7,-1.8,29.97,ESE,108,0.0,0.0,85,0.00,,---,0.00,0.00,VWS V14.00,2013-02-03 10:43:00,
2013-02-03 05:48:00,1.7,-1.8,29.97,ESE,108,0.0,0.0,85,0.00,,---,0.00,0.00,VWS V14.00,2013-02-03 10:48:00,
2013-02-03 05:53:00,1.7,-1.8,29.97,ESE,108,0.0,0.0,85,0.00,,---,0.00,0.00,VWS V14.00,2013-02-03 10:53:00,
2013-02-03 05:58:00,1.6,-1.9,29.96,ESE,108,0.0,0.0,85,0.00,,---,0.00,0.00,VWS V14.00,2013-02-03 10:58:00,
2013-02-03 06:00:00,8.0,3.4,30.15,East,80,0.0,4.0,81,0.00,,---,0.00,51.00,VWS V14.00,2013-02-03 11:00:00,
2013-02-03 06:03:00,1.5,-2.0,29.97,ESE,108,0.0,0.0,85,0.00,,---,0.00,0.00,VWS V14.00,2013-02-03 11:03:00,
2013-02-03 06:08:00,1.5,-2.0,29.96,ESE,108,0.0,0.0,85,0.00,,---,0.00,0.00,VWS V14.00,2013-02-03 11:08:00,
2013-02-03 06:13:00,1.4,-2.0,29.96,ESE,108,0.0,0.0,85,0.00,,---,0.00,0.00,VWS V14.00,2013-02-03 11:13:00,
2013-02-03 06:18:00,1.3,-2.2,29.96,ESE,108,0.0,0.0,85,0.00,,---,0.00,0.00,VWS V14.00,2013-02-03 11:18:00,
2013-02-03 06:23:00,1.2,-2.5,29.96,ESE,108,0.0,0.0,84,0.00,,---,0.00,0.00,VWS V14.00,2013-02-03 11:23:00,
2013-02-03 06:28:00,1.0,-2.7,29.96,ESE,108,0.0,0.0,84,0.00,,---,0.00,0.00,VWS V14.00,2013-02-03 11:28:00,
2013-02-03 06:30:00,9.4,3.1,30.15,SE,126,2.0,6.0,75,0.00,,---,0.00,47.00,VWS V14.00,2013-02-03 11:30:00,
2013-02-03 06:33:00,0.9,-2.8,29.96,ESE,108,0.0,0.0,84,0.00,,---,0.00,0.00,VWS V14.00,2013-02-03 11:33:00,
2013-02-03 06:38:00,0.8,-2.9,29.96,ESE,108,0.0,0.0,84,0.00,,---,0.00,0.00,VWS V14.00,2013-02-03 11:38:00,
2013-02-03 06:43:00,0.9,-2.8,29.96,ESE,108,0.0,0.0,84,0.00,,---,0.00,0.00,VWS V14.00,2013-02-03 11:43:00,
2013-02-03 06:48:00,1.1,-2.3,29.96,ESE,108,0.0,0.0,85,0.00,,---,0.00,0.00,VWS V14.00,2013-02-03 11:48:00,
2013-02-03 06:53:00,1.0,-2.5,29.96,ESE,108,0.0,0.0,85,0.00,,---,0.00,0.00,VWS V14.00,2013-02-03 11:53:00,
2013-02-03 06:58:00,0.9,-2.8,29.96,ESE,108,0.0,0.0,84,0.00,,---,0.00,0.00,VWS V14.00,2013-02-03 11:58:00,
2013-02-03 07:00:00,11.0,3.2,30.15,South,187,5.0,7.0,70,0.00,,---,0.00,88.00,VWS V14.00,2013-02-03 12:00:00,
2013-02-03 07:03:00,0.8,-2.9,29.96,ESE,108,0.0,0.0,84,0.00,,---,0.00,0.00,VWS V14.00,2013-02-03 12:03:00,
2013-02-03 07:08:00,0.7,-3.0,29.96,ESE,108,0.0,0.0,84,0.00,,---,0.00,0.00,VWS V14.00,2013-02-03 12:08:00,
2013-02-03 07:13:00,0.4,-3.3,29.96,ESE,108,0.0,0.0,84,0.00,,---,0.00,0.00,VWS V14.00,2013-02-03 12:13:00,
2013-02-03 07:18:00,0.2,-3.5,29.96,ESE,108,0.0,0.0,84,0.00,,---,0.00,5.00,VWS V14.00,2013-02-03 12:18:00,
2013-02-03 07:23:00,0.1,-3.7,29.97,ESE,108,0.0,0.0,84,0.00,,---,0.00,7.00,VWS V14.00,2013-02-03 12:23:00,
2013-02-03 07:28:00,-0.2,-3.9,29.97,ESE,108,0.0,0.0,84,0.00,,---,0.00,7.00,VWS V14.00,2013-02-03 12:28:00,
2013-02-03 07:30:00,13.5,4.6,30.14,SSE,161,4.0,8.0,67,0.00,,---,0.00,199.00,VWS V14.00,2013-02-03 12:30:00,
2013-02-03 07:33:00,-0.4,-4.1,29.97,ESE,108,0.0,0.0,84,0.00,,---,0.00,9.00,VWS V14.00,2013-02-03 12:33:00,
2013-02-03 07:38:00,-0.5,-4.2,29.97,ESE,108,0.0,0.0,84,0.00,,---,0.00,30.00,VWS V14.00,2013-02-03 12:38:00,
2013-02-03 07:43:00,-0.4,-4.1,29.96,ESE,108,0.0,0.0,84,0.00,,---,0.00,60.00,VWS V14.00,2013-02-03 12:43:00,
2013-02-03 07:48:00,-0.1,-3.7,29.96,ESE,108,0.0,0.0,84,0.00,,---,0.00,79.00,VWS V14.00,2013-02-03 12:48:00,
2013-02-03 07:53:00,0.3,-3.4,29.96,ESE,108,0.0,0.0,84,0.00,,---,0.00,88.00,VWS V14.00,2013-02-03 12:53:00,
2013-02-03 07:58:00,0.5,-3.2,29.96,ESE,108,0.0,0.0,84,0.00,,---,0.00,90.00,VWS V14.00,2013-02-03 12:58:00,
2013-02-03 08:00:00,15.1,5.5,30.14,SSE,164,4.0,11.0,65,0.00,,---,0.00,236.00,VWS V14.00,2013-02-03 13:00:00,
2013-02-03 08:03:00,0.9,-2.8,29.96,ESE,108,0.0,0.0,84,0.00,,---,0.00,70.00,VWS V14.00,2013-02-03 13:03:00,
2013-02-03 08:08:00,1.2,-2.5,29.96,ESE,108,0.0,1.0,84,0.00,,---,0.00,26.00,VWS V14.00,2013-02-03 13:08:00,
2013-02-03 08:13:00,1.7,-1.8,29.96,ESE,108,0.0,1.0,85,0.00,,---,0.00,25.00,VWS V14.00,2013-02-03 13:13:00,
2013-02-03 08:19:00,2.0,-1.5,29.96,ESE,108,0.0,1.0,85,0.00,,---,0.00,25.00,VWS V14.00,2013-02-03 13:19:00,
2013-02-03 08:24:00,2.3,-1.2,29.96,ESE,108,0.0,1.0,85,0.00,,---,0.00,26.00,VWS V14.00,2013-02-03 13:24:00,
2013-02-03 08:29:00,2.7,-0.8,29.96,ESE,108,0.0,1.0,85,0.00,,---,0.00,32.00,VWS V14.00,2013-02-03 13:29:00,
2013-02-03 08:30:00,15.8,5.8,30.13,West,276,7.0,8.0,64,0.00,,---,0.00,214.00,VWS V14.00,2013-02-03 13:30:00,
2013-02-03 08:34:00,3.1,-0.4,29.95,ESE,108,0.0,1.0,85,0.00,,---,0.00,28.00,VWS V14.00,2013-02-03 13:34:00,
2013-02-03 08:39:00,3.7,0.5,29.95,ESE,108,0.0,1.0,86,0.00,,---,0.00,32.00,VWS V14.00,2013-02-03 13:39:00,
2013-02-03 08:44:00,4.3,1.0,29.95,ESE,108,0.0,1.0,86,0.00,,---,0.00,30.00,VWS V14.00,2013-02-03 13:44:00,
2013-02-03 08:49:00,4.7,1.4,29.95,ESE,108,0.0,0.0,86,0.00,,---,0.00,33.00,VWS V14.00,2013-02-03 13:49:00,
2013-02-03 08:54:00,5.5,2.5,29.95,ESE,108,0.0,0.0,87,0.00,,---,0.00,40.00,VWS V14.00,2013-02-03 13:54:00,
2013-02-03 08:59:00,6.3,3.3,29.95,ESE,108,0.0,1.0,87,0.00,,---,0.00,47.00,VWS V14.00,2013-02-03 13:59:00,
2013-02-03 09:00:00,15.5,6.5,30.11,SSE,161,1.0,12.0,67,0.00,,---,0.00,255.00,VWS V14.00,2013-02-03 14:00:00,
2013-02-03 09:04:00,6.8,3.8,29.95,ESE,108,0.0,1.0,87,0.00,,---,0.00,39.00,VWS V14.00,2013-02-03 14:04:00,
2013-02-03 09:09:00,7.2,4.2,29.95,ESE,108,0.0,1.0,87,0.00,,---,0.00,49.00,VWS V14.00,2013-02-03 14:09:00,
2013-02-03 09:14:00,7.9,4.8,29.95,ESE,108,0.0,1.0,87,0.00,,---,0.00,62.00,VWS V14.00,2013-02-03 14:14:00,
2013-02-03 09:19:00,8.9,6.1,29.95,SE,132,0.0,0.0,88,0.00,,---,0.00,67.00,VWS V14.00,2013-02-03 14:19:00,
2013-02-03 09:24:00,12.7,10.1,29.95,SSE,161,2.0,2.0,89,0.00,,---,0.00,49.00,VWS V14.00,2013-02-03 14:24:00,
2013-02-03 09:29:00,14.3,11.1,29.95,SSE,161,0.0,2.0,87,0.00,,---,0.00,84.00,VWS V14.00,2013-02-03 14:29:00,
2013-02-03 09:30:00,16.2,6.8,30.09,WSW,256,4.0,13.0,66,0.00,,---,0.00,278.00,VWS V14.00,2013-02-03 14:30:00,
2013-02-03 09:34:00,15.0,11.6,29.95,SSE,161,1.0,4.0,86,0.00,,---,0.00,72.00,VWS V14.00,2013-02-03 14:34:00,
2013-02-03 09:39:00,15.6,11.4,29.95,South,170,1.0,5.0,83,0.00,,---,0.00,76.00,VWS V14.00,2013-02-03 14:39:00,
2013-02-03 09:44:00,15.9,10.8,29.95,South,179,6.0,6.0,80,0.00,,---,0.00,42.00,VWS V14.00,2013-02-03 14:44:00,
2013-02-03 09:49:00,16.2,10.3,29.95,South,171,1.0,7.0,77,0.00,,---,0.00,95.00,VWS V14.00,2013-02-03 14:49:00,
2013-02-03 09:54:00,16.3,10.1,29.95,South,172,2.0,11.0,76,0.00,,---,0.00,90.00,VWS V14.00,2013-02-03 14:54:00,
2013-02-03 09:59:00,16.5,10.0,29.95,South,174,2.0,11.0,75,0.00,,---,0.00,44.00,VWS V14.00,2013-02-03 14:59:00,
2013-02-03 10:00:00,16.6,7.6,30.07,SSW,193,5.0,10.0,67,0.00,,---,0.00,243.00,VWS V14.00,2013-02-03 15:00:00,
2013-02-03 10:04:00,16.7,10.2,29.95,SSE,162,1.0,11.0,75,0.00,,---,0.00,60.00,VWS V14.00,2013-02-03 15:04:00,
2013-02-03 10:09:00,16.8,10.0,29.95,SSE,151,3.0,11.0,74,0.00,,---,0.00,42.00,VWS V14.00,2013-02-03 15:09:00,
2013-02-03 10:14:00,17.1,10.3,29.94,SSE,165,2.0,11.0,74,0.00,,---,0.00,46.00,VWS V14.00,2013-02-03 15:14:00,
2013-02-03 10:19:00,17.3,10.1,29.94,South,169,5.0,6.0,73,0.00,,---,0.00,47.00,VWS V14.00,2013-02-03 15:19:00,
2013-02-03 10:24:00,17.5,10.0,29.94,SSE,164,1.0,6.0,72,0.00,,---,0.00,49.00,VWS V14.00,2013-02-03 15:24:00,
2013-02-03 10:29:00,17.9,10.1,29.94,South,173,3.0,6.0,71,0.00,,---,0.00,47.00,VWS V14.00,2013-02-03 15:29:00,
2013-02-03 10:30:00,15.9,7.6,30.07,SSE,163,2.0,17.0,69,0.00,,---,0.00,174.00,VWS V14.00,2013-02-03 15:30:00,
2013-02-03 10:34:00,18.2,10.4,29.94,SSE,167,0.0,6.0,71,0.00,,---,0.00,142.00,VWS V14.00,2013-02-03 15:34:00,
2013-02-03 10:39:00,18.2,10.1,29.93,SSE,165,2.0,6.0,70,0.00,,---,0.00,77.00,VWS V14.00,2013-02-03 15:39:00,
2013-02-03 10:44:00,18.4,10.3,29.93,South,169,5.0,7.0,70,0.00,,---,0.00,51.00,VWS V14.00,2013-02-03 15:44:00,
2013-02-03 10:49:00,18.6,10.5,29.93,South,178,2.0,8.0,70,0.00,,---,0.00,227.00,VWS V14.00,2013-02-03 15:49:00,
2013-02-03 10:54:00,18.9,10.4,29.93,SSE,152,1.0,8.0,69,0.00,,---,0.00,84.00,VWS V14.00,2013-02-03 15:54:00,
2013-02-03 10:59:00,19.0,9.5,29.93,SE,142,2.0,8.0,66,0.00,,---,0.00,58.00,VWS V14.00,2013-02-03 15:59:00,
2013-02-03 11:00:00,16.6,8.2,30.06,SSW,196,0.0,13.0,69,0.00,,---,0.00,179.00,VWS V14.00,2013-02-03 16:00:00,
2013-02-03 11:04:00,19.3,9.8,29.92,South,171,1.0,8.0,66,0.00,,---,0.00,88.00,VWS V14.00,2013-02-03 16:04:00,
2013-02-03 11:09:00,19.5,10.0,29.92,SE,140,1.0,8.0,66,0.00,,---,0.00,76.00,VWS V14.00,2013-02-03 16:09:00,
2013-02-03 11:14:00,19.7,10.2,29.92,SSE,167,3.0,8.0,66,0.00,,---,0.00,127.00,VWS V14.00,2013-02-03 16:14:00,
2013-02-03 11:20:00,19.8,10.3,29.91,SE,132,1.0,6.0,66,0.00,,---,0.00,163.00,VWS V14.00,2013-02-03 16:20:00,
2013-02-03 11:25:00,19.8,10.3,29.91,SSE,165,3.0,7.0,66,0.00,,---,0.00,114.00,VWS V14.00,2013-02-03 16:25:00,
2013-02-03 11:30:00,19.7,10.2,29.91,South,172,3.0,9.0,66,0.00,,---,0.00,520.00,VWS V14.00,2013-02-03 16:30:00,
2013-02-03 11:35:00,19.8,10.3,29.90,SE,131,1.0,9.0,66,0.00,,---,0.00,536.00,VWS V14.00,2013-02-03 16:35:00,
2013-02-03 11:40:00,19.8,10.3,29.90,SE,132,5.0,9.0,66,0.00,,---,0.00,533.00,VWS V14.00,2013-02-03 16:40:00,
2013-02-03 11:45:00,19.9,10.4,29.90,SE,145,4.0,9.0,66,0.00,,---,0.00,485.00,VWS V14.00,2013-02-03 16:45:00,
2013-02-03 11:50:00,20.3,11.1,29.89,SSE,156,2.0,3.0,67,0.00,,---,0.00,492.00,VWS V14.00,2013-02-03 16:50:00,
2013-02-03 11:55:00,20.3,10.4,29.89,SSE,147,2.0,9.0,65,0.00,,---,0.00,529.00,VWS V14.00,2013-02-03 16:55:00,
2013-02-03 12:00:00,20.2,10.3,29.89,SSE,158,3.0,9.0,65,0.00,,---,0.00,529.00,VWS V14.00,2013-02-03 17:00:00,
2013-02-03 12:05:00,20.3,10.4,29.88,SE,141,4.0,9.0,65,0.00,,---,0.00,515.00,VWS V14.00,2013-02-03 17:05:00,
2013-02-03 12:10:00,20.4,10.5,29.88,SSE,154,3.0,9.0,65,0.00,,---,0.00,489.00,VWS V14.00,2013-02-03 17:10:00,
2013-02-03 12:15:00,20.3,10.8,29.88,South,170,1.0,9.0,66,0.00,,---,0.00,501.00,VWS V14.00,2013-02-03 17:15:00,
2013-02-03 12:20:00,20.5,10.3,29.88,ESE,111,4.0,11.0,64,0.00,,---,0.00,508.00,VWS V14.00,2013-02-03 17:20:00,
2013-02-03 12:25:00,20.8,10.2,29.87,East,79,5.0,11.0,63,0.00,,---,0.00,497.00,VWS V14.00,2013-02-03 17:25:00,
2013-02-03 12:30:00,21.0,10.4,29.87,SSE,164,3.0,11.0,63,0.00,,---,0.00,501.00,VWS V14.00,2013-02-03 17:30:00,
2013-02-03 12:35:00,21.4,10.4,29.86,South,169,1.0,11.0,62,0.00,,---,0.00,503.00,VWS V14.00,2013-02-03 17:35:00,
2013-02-03 12:40:00,21.4,10.1,29.86,SSE,163,2.0,11.0,61,0.00,,---,0.00,506.00,VWS V14.00,2013-02-03 17:40:00,
2013-02-03 12:45:00,21.5,9.8,29.86,East,94,3.0,11.0,60,0.00,,---,0.00,496.00,VWS V14.00,2013-02-03 17:45:00,
2013-02-03 12:50:00,21.5,9.4,29.85,East,101,10.0,10.0,59,0.00,,---,0.00,506.00,VWS V14.00,2013-02-03 17:50:00,
2013-02-03 12:55:00,21.5,9.8,29.85,ESE,106,1.0,11.0,60,0.00,,---,0.00,107.00,VWS V14.00,2013-02-03 17:55:00,
2013-02-03 13:00:00,21.6,9.5,29.85,SSE,165,2.0,11.0,59,0.00,,---,0.00,121.00,VWS V14.00,2013-02-03 18:00:00,
2013-02-03 13:05:00,21.6,9.9,29.85,East,98,8.0,11.0,60,0.00,,---,0.00,517.00,VWS V14.00,2013-02-03 18:05:00,
2013-02-03 13:10:00,21.6,9.5,29.84,ESE,119,2.0,11.0,59,0.00,,---,0.00,513.00,VWS V14.00,2013-02-03 18:10:00,
2013-02-03 13:15:00,22.0,9.9,29.84,East,92,3.0,3.0,59,0.00,,---,0.00,471.00,VWS V14.00,2013-02-03 18:15:00,
2013-02-03 13:20:00,22.0,9.9,29.84,East,87,5.0,7.0,59,0.00,,---,0.00,478.00,VWS V14.00,2013-02-03 18:20:00,
2013-02-03 13:25:00,22.1,9.6,29.83,East,82,2.0,7.0,58,0.00,,---,0.00,485.00,VWS V14.00,2013-02-03 18:25:00,
2013-02-03 13:30:00,22.6,10.1,29.83,East,82,0.0,7.0,58,0.00,,---,0.00,139.00,VWS V14.00,2013-02-03 18:30:00,
2013-02-03 13:35:00,22.9,9.6,29.83,ESE,107,3.0,8.0,56,0.00,,---,0.00,241.00,VWS V14.00,2013-02-03 18:35:00,
2013-02-03 13:40:00,22.7,9.0,29.82,East,88,0.0,8.0,55,0.00,,---,0.00,116.00,VWS V14.00,2013-02-03 18:40:00,
2013-02-03 13:45:00,22.6,9.3,29.82,East,88,0.0,0.0,56,0.00,,---,0.00,146.00,VWS V14.00,2013-02-03 18:45:00,
2013-02-03 13:50:00,22.7,10.2,29.82,SSE,162,0.0,1.0,58,0.00,,---,0.00,220.00,VWS V14.00,2013-02-03 18:50:00,
2013-02-03 13:55:00,22.4,11.0,29.82,WNW,286,5.0,7.0,61,0.00,,---,0.00,149.00,VWS V14.00,2013-02-03 18:55:00,
2013-02-03 14:00:00,22.2,11.2,29.82,NW,319,5.0,7.0,62,0.00,,---,0.00,165.00,VWS V14.00,2013-02-03 19:00:00,
2013-02-03 14:05:00,22.2,11.5,29.82,NW,322,4.0,7.0,63,0.00,,---,0.00,185.00,VWS V14.00,2013-02-03 19:05:00,
2013-02-03 14:10:00,22.4,11.7,29.81,West,273,1.0,7.0,63,0.00,,---,0.00,176.00,VWS V14.00,2013-02-03 19:10:00,
2013-02-03 14:15:00,22.5,12.2,29.81,NW,315,3.0,3.0,64,0.00,,---,0.00,186.00,VWS V14.00,2013-02-03 19:15:00,
2013-02-03 14:20:00,22.2,11.5,29.82,West,268,0.0,8.0,63,0.00,,---,0.00,192.00,VWS V14.00,2013-02-03 19:20:00,
2013-02-03 14:25:00,22.1,11.4,29.81,NW,313,1.0,8.0,63,0.00,,---,0.00,163.00,VWS V14.00,2013-02-03 19:25:00,
2013-02-03 14:30:00,22.0,11.4,29.81,NW,309,0.0,8.0,63,0.00,,---,0.00,178.00,VWS V14.00,2013-02-03 19:30:00,
2013-02-03 14:35:00,22.2,11.9,29.81,NW,308,0.0,8.0,64,0.00,,---,0.00,178.00,VWS V14.00,2013-02-03 19:35:00,
2013-02-03 14:40:00,22.4,11.7,29.81,NW,308,0.0,8.0,63,0.00,,---,0.00,190.00,VWS V14.00,2013-02-03 19:40:00,
2013-02-03 14:46:00,22.5,11.8,29.81,NW,308,0.0,0.0,63,0.00,,---,0.00,181.00,VWS V14.00,2013-02-03 19:46:00,
2013-02-03 14:51:00,22.7,12.0,29.81,WSW,251,0.0,3.0,63,0.00,,---,0.00,156.00,VWS V14.00,2013-02-03 19:51:00,
2013-02-03 14:56:00,22.8,12.1,29.81,WSW,251,0.0,3.0,63,0.00,,---,0.00,153.00,VWS V14.00,2013-02-03 19:56:00,
2013-02-03 15:00:00,16.0,11.2,30.02,SSE,156,0.0,2.0,81,0.00,,---,0.00,0.00,VWS V14.00,2013-02-03 20:00:00,
2013-02-03 15:01:00,23.0,11.9,29.81,WSW,243,0.0,3.0,62,0.00,,---,0.00,162.00,VWS V14.00,2013-02-03 20:01:00,
2013-02-03 15:06:00,23.1,12.0,29.81,NW,319,0.0,3.0,62,0.00,,---,0.00,165.00,VWS V14.00,2013-02-03 20:06:00,
2013-02-03 15:11:00,23.0,11.9,29.81,NW,310,1.0,4.0,62,0.00,,---,0.00,156.00,VWS V14.00,2013-02-03 20:11:00,
2013-02-03 15:16:00,23.1,12.0,29.81,NW,310,0.0,2.0,62,0.00,,---,0.00,139.00,VWS V14.00,2013-02-03 20:16:00,
2013-02-03 15:21:00,23.1,12.0,29.81,SW,233,1.0,3.0,62,0.00,,---,0.00,132.00,VWS V14.00,2013-02-03 20:21:00,
2013-02-03 15:26:00,23.0,11.9,29.81,SW,233,0.0,3.0,62,0.00,,---,0.00,113.00,VWS V14.00,2013-02-03 20:26:00,
2013-02-03 15:30:00,15.8,11.6,30.02,SSE,156,0.0,2.0,83,0.00,,---,0.00,0.00,VWS V14.00,2013-02-03 20:30:00,
2013-02-03 15:31:00,23.0,11.6,29.81,South,181,0.0,3.0,61,0.00,,---,0.00,90.00,VWS V14.00,2013-02-03 20:31:00,
2013-02-03 15:36:00,22.8,11.8,29.80,South,181,0.0,3.0,62,0.00,,---,0.00,88.00,VWS V14.00,2013-02-03 20:36:00,
2013-02-03 15:41:00,22.6,11.6,29.80,WSW,242,0.0,3.0,62,0.00,,---,0.00,90.00,VWS V14.00,2013-02-03 20:41:00,
2013-02-03 15:46:00,22.7,12.0,29.80,WSW,242,0.0,1.0,63,0.00,,---,0.00,74.00,VWS V14.00,2013-02-03 20:46:00,
2013-02-03 15:51:00,22.7,12.0,29.80,WSW,242,2.0,2.0,63,0.00,,---,0.00,58.00,VWS V14.00,2013-02-03 20:51:00,
2013-02-03 15:56:00,22.6,11.9,29.80,WSW,250,0.0,2.0,63,0.00,,---,0.00,58.00,VWS V14.00,2013-02-03 20:56:00,
2013-02-03 16:00:00,15.7,11.7,30.02,SSE,156,0.0,3.0,84,0.00,,---,0.00,0.00,VWS V14.00,2013-02-03 21:00:00,
2013-02-03 16:01:00,22.5,11.8,29.80,NW,313,1.0,3.0,63,0.00,,---,0.00,62.00,VWS V14.00,2013-02-03 21:01:00,
2013-02-03 16:06:00,22.3,11.6,29.80,NW,313,0.0,3.0,63,0.00,,---,0.00,51.00,VWS V14.00,2013-02-03 21:06:00,
2013-02-03 16:11:00,22.1,11.4,29.79,WNW,303,2.0,5.0,63,0.00,,---,0.00,44.00,VWS V14.00,2013-02-03 21:11:00,
2013-02-03 16:16:00,21.9,11.6,29.79,NW,304,2.0,3.0,64,0.00,,---,0.00,44.00,VWS V14.00,2013-02-03 21:16:00,
2013-02-03 16:21:00,21.8,11.5,29.79,NW,304,2.0,3.0,64,0.00,,---,0.00,44.00,VWS V14.00,2013-02-03 21:21:00,
2013-02-03 16:26:00,21.7,11.4,29.79,NW,310,2.0,5.0,64,0.00,,---,0.00,40.00,VWS V14.00,2013-02-03 21:26:00,
2013-02-03 16:30:00,15.5,11.8,30.02,SSE,156,0.0,2.0,85,0.00,,---,0.00,0.00,VWS V14.00,2013-02-03 21:30:00,
2013-02-03 16:31:00,21.6,11.7,29.79,NW,310,0.0,5.0,65,0.00,,---,0.00,35.00,VWS V14.00,2013-02-03 21:31:00,
2013-02-03 16:36:00,21.7,12.1,29.79,NW,310,0.0,5.0,66,0.00,,---,0.00,26.00,VWS V14.00,2013-02-03 21:36:00,
2013-02-03 16:42:00,21.6,12.0,29.79,NW,310,0.0,5.0,66,0.00,,---,0.00,30.00,VWS V14.00,2013-02-03 21:42:00,
2013-02-03 16:47:00,21.7,12.1,29.79,NW,310,0.0,0.0,66,0.00,,---,0.00,26.00,VWS V14.00,2013-02-03 21:47:00,
2013-02-03 16:52:00,21.5,11.6,29.79,NW,309,3.0,5.0,65,0.00,,---,0.00,19.00,VWS V14.00,2013-02-03 21:52:00,
2013-02-03 16:57:00,21.3,11.4,29.79,NW,312,4.0,5.0,65,0.00,,---,0.00,14.00,VWS V14.00,2013-02-03 21:57:00,
2013-02-03 17:00:00,15.5,12.1,30.02,SSE,156,0.0,0.0,86,0.00,,---,0.00,0.00,VWS V14.00,2013-02-03 22:00:00,
2013-02-03 17:02:00,21.1,11.2,29.79,NW,312,1.0,5.0,65,0.00,,---,0.00,9.00,VWS V14.00,2013-02-03 22:02:00,
2013-02-03 17:07:00,21.0,11.1,29.79,NW,312,0.0,5.0,65,0.00,,---,0.00,0.00,VWS V14.00,2013-02-03 22:07:00,
2013-02-03 17:12:00,20.8,10.9,29.78,NW,312,0.0,5.0,65,0.00,,---,0.00,0.00,VWS V14.00,2013-02-03 22:12:00,
2013-02-03 17:17:00,20.7,10.8,29.78,NW,312,1.0,1.0,65,0.00,,---,0.00,0.00,VWS V14.00,2013-02-03 22:17:00,
2013-02-03 17:22:00,20.5,10.6,29.78,NW,312,1.0,1.0,65,0.00,,---,0.00,0.00,VWS V14.00,2013-02-03 22:22:00,
2013-02-03 17:27:00,20.3,10.8,29.78,NW,312,0.0,1.0,66,0.00,,---,0.00,0.00,VWS V14.00,2013-02-03 22:27:00,
2013-02-03 17:30:00,15.6,12.2,30.02,SSE,156,0.0,0.0,86,0.00,,---,0.00,0.00,VWS V14.00,2013-02-03 22:30:00,
2013-02-03 17:32:00,20.2,10.7,29.78,NW,312,0.0,1.0,66,0.00,,---,0.00,0.00,VWS V14.00,2013-02-03 22:32:00,
2013-02-03 17:37:00,20.1,10.6,29.78,NW,312,0.0,1.0,66,0.00,,---,0.00,0.00,VWS V14.00,2013-02-03 22:37:00,
2013-02-03 17:42:00,19.9,10.7,29.78,NW,312,0.0,1.0,67,0.00,,---,0.00,0.00,VWS V14.00,2013-02-03 22:42:00,
2013-02-03 17:47:00,19.7,10.9,29.78,NW,312,0.0,0.0,68,0.00,,---,0.00,0.00,VWS V14.00,2013-02-03 22:47:00,
2013-02-03 17:52:00,19.3,10.5,29.79,NW,312,0.0,0.0,68,0.00,,---,0.00,0.00,VWS V14.00,2013-02-03 22:52:00,
2013-02-03 17:57:00,18.9,10.4,29.78,NW,312,0.0,0.0,69,0.00,,---,0.00,0.00,VWS V14.00,2013-02-03 22:57:00,
2013-02-03 18:00:00,15.7,12.3,30.02,SSE,156,0.0,0.0,86,0.00,,---,0.00,0.00,VWS V14.00,2013-02-03 23:00:00,
2013-02-03 18:02:00,18.5,10.4,29.79,NW,312,0.0,0.0,70,0.00,,---,0.00,0.00,VWS V14.00,2013-02-03 23:02:00,
2013-02-03 18:07:00,18.1,10.3,29.79,NW,312,0.0,0.0,71,0.00,,---,0.00,0.00,VWS V14.00,2013-02-03 23:07:00,
2013-02-03 18:12:00,17.5,10.3,29.79,NW,312,0.0,0.0,73,0.00,,---,0.00,0.00,VWS V14.00,2013-02-03 23:12:00,
2013-02-03 18:17:00,17.3,10.4,29.78,NW,312,0.0,0.0,74,0.00,,---,0.00,0.00,VWS V14.00,2013-02-03 23:17:00,
2013-02-03 18:22:00,17.2,10.6,29.78,NW,312,0.0,0.0,75,0.00,,---,0.00,0.00,VWS V14.00,2013-02-03 23:22:00,
2013-02-03 18:27:00,17.1,10.9,29.78,NW,312,0.0,0.0,76,0.00,,---,0.00,0.00,VWS V14.00,2013-02-03 23:27:00,
2013-02-03 18:30:00,15.7,12.3,30.02,SSE,156,0.0,0.0,86,0.00,,---,0.00,0.00,VWS V14.00,2013-02-03 23:30:00,
2013-02-03 18:32:00,17.1,11.1,29.78,NW,312,0.0,0.0,77,0.00,,---,0.00,0.00,VWS V14.00,2013-02-03 23:32:00,
2013-02-03 18:37:00,17.1,11.1,29.78,NW,312,0.0,0.0,77,0.00,,---,0.00,0.00,VWS V14.00,2013-02-03 23:37:00,
2013-02-03 18:42:00,17.1,11.4,29.78,NW,312,0.0,0.0,78,0.00,,---,0.00,0.00,VWS V14.00,2013-02-03 23:42:00,
2013-02-03 18:47:00,17.2,11.5,29.78,NW,312,0.0,0.0,78,0.00,,---,0.00,0.00,VWS V14.00,2013-02-03 23:47:00,
2013-02-03 18:52:00,17.3,11.6,29.78,NW,312,0.0,0.0,78,0.00,,---,0.00,0.00,VWS V14.00,2013-02-03 23:52:00,
2013-02-03 18:57:00,17.3,11.6,29.77,NW,312,0.0,0.0,78,0.00,,---,0.00,0.00,VWS V14.00,2013-02-03 23:57:00,
2013-02-03 19:00:00,15.8,12.4,30.03,SSE,156,0.0,0.0,86,0.00,,---,0.00,0.00,VWS V14.00,2013-02-04 00:00:00,
2013-02-03 19:02:00,17.4,11.7,29.77,NW,312,0.0,0.0,78,0.00,,---,0.00,0.00,VWS V14.00,2013-02-04 00:02:00,
2013-02-03 19:07:00,17.5,11.8,29.77,NW,312,0.0,0.0,78,0.00,,---,0.00,0.00,VWS V14.00,2013-02-04 00:07:00,
2013-02-03 19:12:00,17.5,11.8,29.77,NW,312,0.0,0.0,78,0.00,,---,0.00,0.00,VWS V14.00,2013-02-04 00:12:00,
2013-02-03 19:17:00,17.5,11.8,29.77,NW,312,0.0,0.0,78,0.00,,---,0.00,0.00,VWS V14.00,2013-02-04 00:17:00,
2013-02-03 19:22:00,17.6,12.2,29.77,NW,312,0.0,0.0,79,0.00,,---,0.00,0.00,VWS V14.00,2013-02-04 00:22:00,
2013-02-03 19:27:00,17.6,12.2,29.77,NW,312,0.0,0.0,79,0.00,,---,0.00,0.00,VWS V14.00,2013-02-04 00:27:00,
2013-02-03 19:30:00,15.6,12.2,30.02,SSE,156,0.0,0.0,86,0.00,,---,0.00,0.00,VWS V14.00,2013-02-04 00:30:00,
2013-02-03 19:32:00,17.6,12.2,29.77,NW,312,0.0,0.0,79,0.00,,---,0.00,0.00,VWS V14.00,2013-02-04 00:32:00,
2013-02-03 19:37:00,17.6,12.2,29.77,NW,312,0.0,0.0,79,0.00,,---,0.00,0.00,VWS V14.00,2013-02-04 00:37:00,
2013-02-03 19:42:00,17.6,12.2,29.77,NW,312,0.0,0.0,79,0.00,,---,0.00,0.00,VWS V14.00,2013-02-04 00:42:00,
2013-02-03 19:47:00,17.6,12.2,29.77,NW,312,0.0,0.0,79,0.00,,---,0.00,0.00,VWS V14.00,2013-02-04 00:47:00,
2013-02-03 19:52:00,17.6,12.2,29.77,NW,312,0.0,0.0,79,0.00,,---,0.00,0.00,VWS V14.00,2013-02-04 00:52:00,
2013-02-03 19:57:00,17.5,12.1,29.77,NW,312,0.0,0.0,79,0.00,,---,0.00,0.00,VWS V14.00,2013-02-04 00:57:00,
2013-02-03 20:00:00,15.1,11.7,30.02,SSE,155,0.0,1.0,86,0.00,,---,0.00,0.00,VWS V14.00,2013-02-04 01:00:00,
2013-02-03 20:02:00,17.4,12.0,29.77,NW,312,0.0,0.0,79,0.00,,---,0.00,0.00,VWS V14.00,2013-02-04 01:02:00,
2013-02-03 20:07:00,17.3,12.2,29.77,NW,312,0.0,0.0,80,0.00,,---,0.00,0.00,VWS V14.00,2013-02-04 01:07:00,
2013-02-03 20:12:00,17.3,12.2,29.77,NW,312,0.0,0.0,80,0.00,,---,0.00,0.00,VWS V14.00,2013-02-04 01:12:00,
2013-02-03 20:17:00,17.2,12.1,29.77,NW,312,0.0,0.0,80,0.00,,---,0.00,0.00,VWS V14.00,2013-02-04 01:17:00,
2013-02-03 20:22:00,17.2,12.4,29.77,NW,312,0.0,0.0,81,0.00,,---,0.00,0.00,VWS V14.00,2013-02-04 01:22:00,
2013-02-03 20:27:00,17.1,12.3,29.77,NW,312,0.0,0.0,81,0.00,,---,0.00,0.00,VWS V14.00,2013-02-04 01:27:00,
2013-02-03 20:30:00,13.4,10.0,30.02,SSE,156,0.0,0.0,86,0.00,,---,0.00,0.00,VWS V14.00,2013-02-04 01:30:00,
2013-02-03 20:32:00,17.0,12.2,29.77,NW,312,0.0,0.0,81,0.00,,---,0.00,0.00,VWS V14.00,2013-02-04 01:32:00,
2013-02-03 20:37:00,16.8,12.0,29.77,NW,312,0.0,0.0,81,0.00,,---,0.00,0.00,VWS V14.00,2013-02-04 01:37:00,
2013-02-03 20:42:00,16.8,12.0,29.77,NW,312,0.0,0.0,81,0.00,,---,0.00,0.00,VWS V14.00,2013-02-04 01:42:00,
2013-02-03 20:47:00,16.7,11.9,29.77,NW,312,0.0,0.0,81,0.00,,---,0.00,0.00,VWS V14.00,2013-02-04 01:47:00,
2013-02-03 20:52:00,16.6,12.1,29.77,NW,312,0.0,0.0,82,0.00,,---,0.00,0.00,VWS V14.00,2013-02-04 01:52:00,
2013-02-03 20:57:00,16.5,12.0,29.77,NW,312,0.0,0.0,82,0.00,,---,0.00,0.00,VWS V14.00,2013-02-04 01:57:00,
2013-02-03 21:00:00,12.3,8.9,30.02,SSE,156,0.0,0.0,86,0.00,,---,0.00,0.00,VWS V14.00,2013-02-04 02:00:00,
2013-02-03 21:02:00,16.4,11.9,29.77,NW,312,0.0,0.0,82,0.00,,---,0.00,0.00,VWS V14.00,2013-02-04 02:02:00,
2013-02-03 21:07:00,16.3,11.8,29.77,NW,312,0.0,0.0,82,0.00,,---,0.00,0.00,VWS V14.00,2013-02-04 02:07:00,
2013-02-03 21:12:00,16.2,11.7,29.77,NW,312,0.0,0.0,82,0.00,,---,0.00,0.00,VWS V14.00,2013-02-04 02:12:00,
2013-02-03 21:17:00,16.2,12.0,29.77,NW,312,0.0,0.0,83,0.00,,---,0.00,0.00,VWS V14.00,2013-02-04 02:17:00,
2013-02-03 21:22:00,16.1,11.9,29.77,NW,312,0.0,0.0,83,0.00,,---,0.00,0.00,VWS V14.00,2013-02-04 02:22:00,
2013-02-03 21:27:00,15.9,11.7,29.77,NW,312,0.0,0.0,83,0.00,,---,0.00,0.00,VWS V14.00,2013-02-04 02:27:00,
2013-02-03 21:30:00,12.7,9.6,30.03,SSE,150,0.0,2.0,87,0.00,,---,0.00,0.00,VWS V14.00,2013-02-04 02:30:00,
2013-02-03 21:33:00,15.9,11.7,29.77,NW,312,0.0,0.0,83,0.00,,---,0.00,0.00,VWS V14.00,2013-02-04 02:33:00,
2013-02-03 21:38:00,15.8,11.6,29.77,NW,312,0.0,0.0,83,0.00,,---,0.00,0.00,VWS V14.00,2013-02-04 02:38:00,
2013-02-03 21:43:00,15.8,11.6,29.77,NW,312,0.0,0.0,83,0.00,,---,0.00,0.00,VWS V14.00,2013-02-04 02:43:00,
2013-02-03 21:48:00,15.9,11.9,29.76,NW,312,0.0,0.0,84,0.00,,---,0.00,0.00,VWS V14.00,2013-02-04 02:48:00,
2013-02-03 21:53:00,15.8,11.8,29.76,NW,312,0.0,0.0,84,0.00,,---,0.00,0.00,VWS V14.00,2013-02-04 02:53:00,
2013-02-03 21:58:00,15.8,11.8,29.76,NW,312,0.0,0.0,84,0.00,,---,0.00,0.00,VWS V14.00,2013-02-04 02:58:00,
2013-02-03 22:00:00,11.8,8.4,30.02,SSE,150,0.0,0.0,86,0.00,,---,0.00,0.00,VWS V14.00,2013-02-04 03:00:00,
2013-02-03 22:03:00,15.8,11.8,29.76,NW,312,0.0,0.0,84,0.00,,---,0.00,0.00,VWS V14.00,2013-02-04 03:03:00,
2013-02-03 22:08:00,15.8,11.8,29.75,NW,312,0.0,0.0,84,0.00,,---,0.00,0.00,VWS V14.00,2013-02-04 03:08:00,
2013-02-03 22:13:00,15.7,11.7,29.75,NW,312,0.0,0.0,84,0.00,,---,0.00,0.00,VWS V14.00,2013-02-04 03:13:00,
2013-02-03 22:18:00,15.8,11.8,29.75,NW,312,0.0,0.0,84,0.00,,---,0.00,0.00,VWS V14.00,2013-02-04 03:18:00,
2013-02-03 22:23:00,15.8,11.8,29.75,NW,312,0.0,0.0,84,0.00,,---,0.00,0.00,VWS V14.00,2013-02-04 03:23:00,
2013-02-03 22:28:00,15.8,11.8,29.75,NW,312,0.0,0.0,84,0.00,,---,0.00,0.00,VWS V14.00,2013-02-04 03:28:00,
2013-02-03 22:30:00,10.4,7.1,30.01,ESE,109,0.0,1.0,86,0.00,,---,0.00,0.00,VWS V14.00,2013-02-04 03:30:00,
2013-02-03 22:33:00,15.7,11.7,29.75,NW,312,0.0,0.0,84,0.00,,---,0.00,0.00,VWS V14.00,2013-02-04 03:33:00,
2013-02-03 22:38:00,15.7,11.7,29.75,NW,312,0.0,0.0,84,0.00,,---,0.00,0.00,VWS V14.00,2013-02-04 03:38:00,
2013-02-03 22:43:00,15.5,11.5,29.75,NW,312,0.0,0.0,84,0.00,,---,0.00,0.00,VWS V14.00,2013-02-04 03:43:00,
2013-02-03 22:48:00,15.4,11.4,29.74,NW,312,0.0,0.0,84,0.00,,---,0.00,0.00,VWS V14.00,2013-02-04 03:48:00,
2013-02-03 22:53:00,15.3,11.3,29.75,NW,312,0.0,0.0,84,0.00,,---,0.00,0.00,VWS V14.00,2013-02-04 03:53:00,
2013-02-03 22:58:00,15.5,11.8,29.75,NW,312,0.0,0.0,85,0.00,,---,0.00,0.00,VWS V14.00,2013-02-04 03:58:00,
2013-02-03 23:00:00,8.3,5.0,30.00,ESE,109,0.0,2.0,86,0.00,,---,0.00,0.00,VWS V14.00,2013-02-04 04:00:00,
2013-02-03 23:03:00,15.5,11.8,29.75,NW,312,0.0,0.0,85,0.00,,---,0.00,0.00,VWS V14.00,2013-02-04 04:03:00,
2013-02-03 23:08:00,15.4,11.7,29.75,NW,312,0.0,0.0,85,0.00,,---,0.00,0.00,VWS V14.00,2013-02-04 04:08:00,
2013-02-03 23:13:00,15.4,11.7,29.74,NW,312,0.0,0.0,85,0.00,,---,0.00,0.00,VWS V14.00,2013-02-04 04:13:00,
2013-02-03 23:18:00,15.3,11.6,29.74,NW,312,0.0,0.0,85,0.00,,---,0.00,0.00,VWS V14.00,2013-02-04 04:18:00,
2013-02-03 23:23:00,15.3,11.6,29.75,NW,312,0.0,0.0,85,0.00,,---,0.00,0.00,VWS V14.00,2013-02-04 04:23:00,
2013-02-03 23:28:00,15.2,11.5,29.74,NW,312,0.0,0.0,85,0.00,,---,0.00,0.00,VWS V14.00,2013-02-04 04:28:00,
2013-02-03 23:30:00,7.2,3.7,30.00,ESE,108,0.0,2.0,85,0.00,,---,0.00,0.00,VWS V14.00,2013-02-04 04:30:00,
2013-02-03 23:33:00,15.2,11.5,29.74,NW,312,0.0,0.0,85,0.00,,---,0.00,0.00,VWS V14.00,2013-02-04 04:33:00,
2013-02-03 23:38:00,15.2,11.5,29.74,NW,312,0.0,0.0,85,0.00,,---,0.00,0.00,VWS V14.00,2013-02-04 04:38:00,
2013-02-03 23:43:00,15.2,11.5,29.74,NW,312,0.0,0.0,85,0.00,,---,0.00,0.00,VWS V14.00,2013-02-04 04:43:00,
2013-02-03 23:48:00,15.2,11.8,29.74,NW,312,0.0,0.0,86,0.00,,---,0.00,0.00,VWS V14.00,2013-02-04 04:48:00,
2013-02-03 23:53:00,15.2,11.8,29.74,NW,312,0.0,0.0,86,0.00,,---,0.00,0.00,VWS V14.00,2013-02-04 04:53:00,
2013-02-03 23:58:00,15.3,11.6,29.74,NW,312,0.0,0.0,85,0.00,,---,0.00,0.00,VWS V14.00,2013-02-04 04:58:00,